Time,TemperatureF,DewpointF,PressureIn,WindDirection,WindDirectionDegrees,WindSpeedMPH,WindSpeedGustMPH,Humidity,HourlyPrecipIn,Conditions,Clouds,dailyrainin,SoftwareType,DateUTC
2015-01-26 00:00:00,44.7,34.8,29.70,South,187,2.0,8.0,68,0.00,,,0.01,Wunderground v.1.15,2015-01-26 05:00:00,
2015-01-26 00:05:00,44.6,35.1,29.69,SSW,213,2.0,8.0,69,0.00,,,0.00,Wunderground v.1.15,2015-01-26 05:05:00,
2015-01-26 00:10:00,44.5,35.0,29.69,South,182,2.0,2.0,69,0.00,,,0.00,Wunderground v.1.15,2015-01-26 05:10:00,
2015-01-26 00:16:00,44.4,34.9,29.69,SSW,202,2.0,8.0,69,0.00,,,0.00,Wunderground v.1.15,2015-01-26 05:16:00,
2015-01-26 00:21:00,44.4,34.9,29.69,SSW,200,2.0,8.0,69,0.00,,,0.00,Wunderground v.1.15,2015-01-26 05:21:00,
2015-01-26 00:26:00,44.6,35.1,29.68,SW,215,3.0,8.0,69,0.00,,,0.00,Wunderground v.1.15,2015-01-26 05:26:00,
2015-01-26 00:31:00,44.8,34.9,29.68,South,185,4.0,8.0,68,0.00,,,0.00,Wunderground v.1.15,2015-01-26 05:31:00,
2015-01-26 00:36:00,44.9,35.0,29.68,WSW,244,4.0,8.0,68,0.00,,,0.00,Wunderground v.1.15,2015-01-26 05:36:00,
2015-01-26 00:42:00,44.9,35.0,29.68,SSW,200,3.0,8.0,68,0.00,,,0.00,Wunderground v.1.15,2015-01-26 05:42:00,
2015-01-26 00:47:00,44.9,35.0,29.68,SW,228,3.0,8.0,68,0.00,,,0.00,Wunderground v.1.15,2015-01-26 05:47:00,
2015-01-26 00:52:00,45.0,35.1,29.68,SSW,198,3.0,8.0,68,0.00,,,0.00,Wunderground v.1.15,2015-01-26 05:52:00,
2015-01-26 00:57:00,45.1,35.2,29.68,WSW,240,3.0,8.0,68,0.00,,,0.00,Wunderground v.1.15,2015-01-26 05:57:00,
2015-01-26 01:02:00,45.1,35.2,29.68,SW,231,3.0,8.0,68,0.00,,,0.00,Wunderground v.1.15,2015-01-26 06:02:00,
2015-01-26 01:07:00,45.2,35.3,29.68,SW,234,3.0,8.0,68,0.00,,,0.00,Wunderground v.1.15,2015-01-26 06:07:00,
2015-01-26 01:13:00,45.2,35.6,29.68,WSW,255,3.0,8.0,69,0.00,,,0.00,Wunderground v.1.15,2015-01-26 06:13:00,
2015-01-26 01:18:00,45.2,35.3,29.67,SW,235,3.0,8.0,68,0.00,,,0.00,Wunderground v.1.15,2015-01-26 06:18:00,
2015-01-26 01:23:00,45.2,35.6,29.67,SW,227,3.0,8.0,69,0.00,,,0.00,Wunderground v.1.15,2015-01-26 06:23:00,
2015-01-26 01:28:00,44.8,35.6,29.67,WSW,256,2.0,8.0,70,0.00,,,0.00,Wunderground v.1.15,2015-01-26 06:28:00,
2015-01-26 01:33:00,44.3,35.1,29.68,WSW,258,1.0,8.0,70,0.00,,,0.00,Wunderground v.1.15,2015-01-26 06:33:00,
2015-01-26 01:38:00,44.0,35.2,29.67,SW,233,1.0,8.0,71,0.00,,,0.00,Wunderground v.1.15,2015-01-26 06:38:00,
2015-01-26 01:43:00,43.7,35.3,29.67,SW,228,2.0,8.0,72,0.00,,,0.00,Wunderground v.1.15,2015-01-26 06:43:00,
2015-01-26 01:48:00,43.6,35.2,29.67,WSW,237,1.0,8.0,72,0.00,,,0.00,Wunderground v.1.15,2015-01-26 06:48:00,
2015-01-26 01:53:00,43.4,35.3,29.67,SW,221,1.0,8.0,73,0.00,,,0.00,Wunderground v.1.15,2015-01-26 06:53:00,
2015-01-26 01:58:00,43.4,35.3,29.67,SSW,209,1.0,8.0,73,0.00,,,0.00,Wunderground v.1.15,2015-01-26 06:58:00,
2015-01-26 02:04:00,43.4,35.7,29.67,SW,230,2.0,8.0,74,0.00,,,0.00,Wunderground v.1.15,2015-01-26 07:04:00,
2015-01-26 02:09:00,43.3,35.9,29.68,SSW,207,2.0,8.0,75,0.00,,,0.00,Wunderground v.1.15,2015-01-26 07:09:00,
2015-01-26 02:14:00,43.3,35.9,29.67,SW,233,3.0,8.0,75,0.00,,,0.00,Wunderground v.1.15,2015-01-26 07:14:00,
2015-01-26 02:19:00,43.3,35.9,29.67,SW,233,3.0,8.0,75,0.00,,,0.00,Wunderground v.1.15,2015-01-26 07:19:00,
2015-01-26 02:24:00,43.3,35.9,29.67,WSW,238,3.0,8.0,75,0.00,,,0.00,Wunderground v.1.15,2015-01-26 07:24:00,
2015-01-26 02:30:00,43.3,36.2,29.67,WSW,247,3.0,3.0,76,0.00,,,0.00,Wunderground v.1.15,2015-01-26 07:30:00,
2015-01-26 02:35:00,43.1,36.4,29.67,WSW,245,2.0,8.0,77,0.00,,,0.00,Wunderground v.1.15,2015-01-26 07:35:00,
2015-01-26 02:40:00,43.0,36.3,29.67,SW,228,1.0,1.0,77,0.00,,,0.00,Wunderground v.1.15,2015-01-26 07:40:00,
2015-01-26 02:45:00,42.9,36.5,29.67,WSW,240,1.0,8.0,78,0.00,,,0.00,Wunderground v.1.15,2015-01-26 07:45:00,
2015-01-26 02:50:00,42.8,36.4,29.67,WSW,243,1.0,8.0,78,0.00,,,0.00,Wunderground v.1.15,2015-01-26 07:50:00,
2015-01-26 02:56:00,42.8,36.4,29.67,SW,232,1.0,8.0,78,0.00,,,0.00,Wunderground v.1.15,2015-01-26 07:56:00,
2015-01-26 03:01:00,42.8,36.4,29.66,SW,233,0.0,8.0,78,0.00,,,0.00,Wunderground v.1.15,2015-01-26 08:01:00,
2015-01-26 03:06:00,42.8,36.4,29.66,WSW,241,1.0,8.0,78,0.00,,,0.00,Wunderground v.1.15,2015-01-26 08:06:00,
2015-01-26 03:11:00,42.7,36.3,29.66,WSW,240,1.0,8.0,78,0.00,,,0.00,Wunderground v.1.15,2015-01-26 08:11:00,
2015-01-26 03:16:00,42.6,36.5,29.66,WSW,240,0.0,8.0,79,0.00,,,0.00,Wunderground v.1.15,2015-01-26 08:16:00,
2015-01-26 03:22:00,42.4,36.3,29.66,WSW,241,0.0,8.0,79,0.00,,,0.00,Wunderground v.1.15,2015-01-26 08:22:00,
2015-01-26 03:27:00,42.3,36.6,29.66,WSW,240,0.0,8.0,80,0.00,,,0.00,Wunderground v.1.15,2015-01-26 08:27:00,
2015-01-26 03:32:00,42.1,37.0,29.67,West,260,0.0,8.0,82,0.00,,,0.00,Wunderground v.1.15,2015-01-26 08:32:00,
2015-01-26 03:37:00,41.8,37.3,29.67,WSW,257,1.0,8.0,84,0.00,,,0.00,Wunderground v.1.15,2015-01-26 08:37:00,
2015-01-26 03:42:00,41.5,37.9,29.67,West,277,2.0,8.0,87,0.00,,,0.01,Wunderground v.1.15,2015-01-26 08:42:00,
2015-01-26 03:48:00,40.8,37.5,29.67,West,278,4.0,8.0,88,0.19,,,0.03,Wunderground v.1.15,2015-01-26 08:48:00,
2015-01-26 03:53:00,40.6,37.9,29.66,West,267,3.0,8.0,90,0.10,,,0.04,Wunderground v.1.15,2015-01-26 08:53:00,
2015-01-26 03:58:00,40.3,37.6,29.66,SW,234,2.0,8.0,90,0.10,,,0.04,Wunderground v.1.15,2015-01-26 08:58:00,
2015-01-26 04:03:00,40.2,37.8,29.66,SW,229,2.0,8.0,91,0.07,,,0.05,Wunderground v.1.15,2015-01-26 09:03:00,
2015-01-26 04:08:00,40.0,37.9,29.66,WSW,246,1.0,8.0,92,0.09,,,0.06,Wunderground v.1.15,2015-01-26 09:08:00,
2015-01-26 04:14:00,40.0,37.9,29.66,SW,220,2.0,8.0,92,0.09,,,0.06,Wunderground v.1.15,2015-01-26 09:14:00,
2015-01-26 04:19:00,39.9,37.8,29.66,SW,221,1.0,8.0,92,0.07,,,0.07,Wunderground v.1.15,2015-01-26 09:19:00,
2015-01-26 04:24:00,39.9,38.0,29.66,WSW,247,1.0,8.0,93,0.07,,,0.07,Wunderground v.1.15,2015-01-26 09:24:00,
2015-01-26 04:29:00,39.9,38.0,29.66,SW,214,2.0,8.0,93,0.05,,,0.07,Wunderground v.1.15,2015-01-26 09:29:00,
2015-01-26 04:34:00,39.8,37.9,29.66,WSW,240,2.0,8.0,93,0.04,,,0.08,Wunderground v.1.15,2015-01-26 09:34:00,
2015-01-26 04:40:00,39.8,37.9,29.66,WSW,237,2.0,8.0,93,0.08,,,0.09,Wunderground v.1.15,2015-01-26 09:40:00,
2015-01-26 04:45:00,39.8,38.2,29.66,SSW,204,2.0,8.0,94,0.08,,,0.09,Wunderground v.1.15,2015-01-26 09:45:00,
2015-01-26 04:50:00,39.8,38.2,29.66,SSW,206,3.0,8.0,94,0.09,,,0.10,Wunderground v.1.15,2015-01-26 09:50:00,
2015-01-26 04:55:00,39.8,38.2,29.66,WSW,244,3.0,8.0,94,0.11,,,0.11,Wunderground v.1.15,2015-01-26 09:55:00,
2015-01-26 05:00:00,39.8,38.2,29.66,SW,233,3.0,8.0,94,0.11,,,0.12,Wunderground v.1.15,2015-01-26 10:00:00,
2015-01-26 05:05:00,39.7,38.1,29.66,WSW,249,3.0,8.0,94,0.14,,,0.14,Wunderground v.1.15,2015-01-26 10:05:00,
2015-01-26 05:10:00,39.6,37.7,29.66,West,267,4.0,4.0,93,0.10,,,0.14,Wunderground v.1.15,2015-01-26 10:10:00,
2015-01-26 05:15:00,39.5,37.4,29.66,SW,223,4.0,8.0,92,0.10,,,0.15,Wunderground v.1.15,2015-01-26 10:15:00,
2015-01-26 05:20:00,39.4,37.5,29.66,WSW,240,3.0,8.0,93,0.08,,,0.16,Wunderground v.1.15,2015-01-26 10:20:00,
2015-01-26 05:25:00,39.3,37.4,29.66,WSW,240,3.0,8.0,93,0.08,,,0.16,Wunderground v.1.15,2015-01-26 10:25:00,
2015-01-26 05:30:00,39.3,37.4,29.66,SW,226,3.0,8.0,93,0.08,,,0.17,Wunderground v.1.15,2015-01-26 10:30:00,
2015-01-26 05:36:00,39.2,37.3,29.65,SW,221,3.0,8.0,93,0.06,,,0.17,Wunderground v.1.15,2015-01-26 10:36:00,
2015-01-26 05:41:00,39.1,37.2,29.65,SSW,207,3.0,8.0,93,0.05,,,0.18,Wunderground v.1.15,2015-01-26 10:41:00,
2015-01-26 05:46:00,39.1,37.2,29.65,SW,216,3.0,8.0,93,0.08,,,0.19,Wunderground v.1.15,2015-01-26 10:46:00,
2015-01-26 05:51:00,39.0,37.1,29.65,SSW,210,4.0,8.0,93,0.11,,,0.20,Wunderground v.1.15,2015-01-26 10:51:00,
2015-01-26 05:56:00,38.9,37.0,29.65,SSW,202,3.0,8.0,93,0.10,,,0.20,Wunderground v.1.15,2015-01-26 10:56:00,
2015-01-26 06:02:00,38.8,37.2,29.66,SW,221,3.0,8.0,94,0.05,,,0.20,Wunderground v.1.15,2015-01-26 11:02:00,
2015-01-26 06:07:00,38.8,37.2,29.66,SSW,208,3.0,8.0,94,0.04,,,0.21,Wunderground v.1.15,2015-01-26 11:07:00,
2015-01-26 06:12:00,38.7,37.1,29.66,SSW,197,3.0,8.0,94,0.04,,,0.21,Wunderground v.1.15,2015-01-26 11:12:00,
2015-01-26 06:17:00,38.7,37.1,29.66,SW,236,3.0,8.0,94,0.04,,,0.21,Wunderground v.1.15,2015-01-26 11:17:00,
2015-01-26 06:22:00,38.6,37.0,29.66,SSW,202,3.0,8.0,94,0.04,,,0.21,Wunderground v.1.15,2015-01-26 11:22:00,
2015-01-26 06:28:00,38.6,37.3,29.67,WSW,258,4.0,8.0,95,0.04,,,0.22,Wunderground v.1.15,2015-01-26 11:28:00,
2015-01-26 06:33:00,38.6,37.3,29.67,West,267,5.0,8.0,95,0.09,,,0.23,Wunderground v.1.15,2015-01-26 11:33:00,
2015-01-26 06:38:00,38.5,37.2,29.67,West,272,5.0,8.0,95,0.07,,,0.24,Wunderground v.1.15,2015-01-26 11:38:00,
2015-01-26 06:43:00,38.4,37.1,29.67,SW,229,5.0,8.0,95,0.07,,,0.24,Wunderground v.1.15,2015-01-26 11:43:00,
2015-01-26 06:48:00,38.3,37.0,29.68,SW,219,5.0,8.0,95,0.05,,,0.24,Wunderground v.1.15,2015-01-26 11:48:00,
2015-01-26 06:54:00,38.2,36.9,29.68,SW,234,4.0,8.0,95,0.00,,,0.24,Wunderground v.1.15,2015-01-26 11:54:00,
2015-01-26 06:59:00,38.1,36.8,29.68,WSW,240,4.0,8.0,95,0.00,,,0.25,Wunderground v.1.15,2015-01-26 11:59:00,
2015-01-26 07:04:00,38.0,36.7,29.68,SW,219,5.0,10.0,95,0.00,,,0.25,Wunderground v.1.15,2015-01-26 12:04:00,
2015-01-26 07:09:00,37.9,36.6,29.68,WSW,251,6.0,10.0,95,0.00,,,0.25,Wunderground v.1.15,2015-01-26 12:09:00,
2015-01-26 07:14:00,37.9,36.6,29.69,SW,228,5.0,10.0,95,0.00,,,0.25,Wunderground v.1.15,2015-01-26 12:14:00,
2015-01-26 07:20:00,37.8,36.5,29.69,SW,226,4.0,8.0,95,0.00,,,0.26,Wunderground v.1.15,2015-01-26 12:20:00,
2015-01-26 07:25:00,37.8,36.5,29.69,WSW,242,4.0,8.0,95,0.00,,,0.26,Wunderground v.1.15,2015-01-26 12:25:00,
2015-01-26 07:30:00,37.7,36.4,29.69,West,275,5.0,5.0,95,0.00,,,0.26,Wunderground v.1.15,2015-01-26 12:30:00,
2015-01-26 07:35:00,37.6,36.3,29.69,West,272,5.0,8.0,95,0.00,,,0.26,Wunderground v.1.15,2015-01-26 12:35:00,
2015-01-26 07:40:00,37.6,36.3,29.69,SW,230,4.0,8.0,95,0.00,,,0.27,Wunderground v.1.15,2015-01-26 12:40:00,
2015-01-26 07:46:00,37.5,36.2,29.70,SW,217,4.0,8.0,95,0.00,,,0.27,Wunderground v.1.15,2015-01-26 12:46:00,
2015-01-26 07:51:00,37.5,36.5,29.70,WSW,253,4.0,8.0,96,0.04,,,0.28,Wunderground v.1.15,2015-01-26 12:51:00,
2015-01-26 07:56:00,37.4,36.4,29.70,SW,221,3.0,8.0,96,0.04,,,0.28,Wunderground v.1.15,2015-01-26 12:56:00,
2015-01-26 08:01:00,37.3,36.3,29.70,WSW,237,3.0,8.0,96,0.04,,,0.28,Wunderground v.1.15,2015-01-26 13:01:00,
2015-01-26 08:06:00,37.3,36.3,29.70,WSW,240,3.0,8.0,96,0.04,,,0.29,Wunderground v.1.15,2015-01-26 13:06:00,
2015-01-26 08:11:00,37.3,36.3,29.70,SW,226,3.0,8.0,96,0.04,,,0.29,Wunderground v.1.15,2015-01-26 13:11:00,
2015-01-26 08:16:00,37.3,36.3,29.70,SW,220,3.0,8.0,96,0.04,,,0.29,Wunderground v.1.15,2015-01-26 13:16:00,
2015-01-26 08:21:00,37.2,36.2,29.70,SW,229,4.0,8.0,96,0.00,,,0.29,Wunderground v.1.15,2015-01-26 13:21:00,
2015-01-26 08:26:00,37.2,36.2,29.70,WSW,250,4.0,8.0,96,0.00,,,0.30,Wunderground v.1.15,2015-01-26 13:26:00,
2015-01-26 08:31:00,37.2,36.2,29.71,SW,222,3.0,8.0,96,0.00,,,0.30,Wunderground v.1.15,2015-01-26 13:31:00,
2015-01-26 08:36:00,37.2,36.2,29.71,WSW,258,3.0,8.0,96,0.00,,,0.30,Wunderground v.1.15,2015-01-26 13:36:00,
2015-01-26 08:42:00,37.1,36.1,29.71,WSW,254,4.0,8.0,96,0.00,,,0.30,Wunderground v.1.15,2015-01-26 13:42:00,
2015-01-26 08:47:00,37.1,36.1,29.71,WNW,283,4.0,8.0,96,0.00,,,0.31,Wunderground v.1.15,2015-01-26 13:47:00,
2015-01-26 08:52:00,37.1,36.1,29.71,SW,234,4.0,8.0,96,0.00,,,0.31,Wunderground v.1.15,2015-01-26 13:52:00,
2015-01-26 08:57:00,37.1,36.1,29.71,WSW,249,4.0,9.0,96,0.00,,,0.31,Wunderground v.1.15,2015-01-26 13:57:00,
2015-01-26 09:02:00,37.1,36.1,29.71,West,274,3.0,8.0,96,0.04,,,0.32,Wunderground v.1.15,2015-01-26 14:02:00,
2015-01-26 09:07:00,37.0,36.0,29.71,WSW,253,3.0,8.0,96,0.04,,,0.32,Wunderground v.1.15,2015-01-26 14:07:00,
2015-01-26 09:12:00,36.9,35.9,29.71,SW,233,4.0,8.0,96,0.07,,,0.33,Wunderground v.1.15,2015-01-26 14:12:00,
2015-01-26 09:17:00,37.0,36.0,29.71,West,259,4.0,8.0,96,0.07,,,0.33,Wunderground v.1.15,2015-01-26 14:17:00,
2015-01-26 09:22:00,37.0,36.0,29.72,West,265,3.0,8.0,96,0.05,,,0.33,Wunderground v.1.15,2015-01-26 14:22:00,
2015-01-26 09:27:00,37.0,36.0,29.72,WSW,242,3.0,8.0,96,0.00,,,0.33,Wunderground v.1.15,2015-01-26 14:27:00,
2015-01-26 09:32:00,37.0,35.7,29.72,WNW,285,3.0,8.0,95,0.00,,,0.34,Wunderground v.1.15,2015-01-26 14:32:00,
2015-01-26 09:38:00,36.9,35.6,29.72,WSW,242,3.0,8.0,95,0.00,,,0.34,Wunderground v.1.15,2015-01-26 14:38:00,
2015-01-26 09:43:00,37.0,35.7,29.72,WSW,253,4.0,8.0,95,0.00,,,0.34,Wunderground v.1.15,2015-01-26 14:43:00,
2015-01-26 09:48:00,37.1,35.8,29.73,WSW,253,4.0,8.0,95,0.00,,,0.34,Wunderground v.1.15,2015-01-26 14:48:00,
2015-01-26 09:53:00,37.1,35.8,29.73,West,275,3.0,8.0,95,0.00,,,0.34,Wunderground v.1.15,2015-01-26 14:53:00,
2015-01-26 09:58:00,37.1,36.1,29.74,SW,221,2.0,8.0,96,0.00,,,0.34,Wunderground v.1.15,2015-01-26 14:58:00,
2015-01-26 10:04:00,37.1,35.8,29.74,SW,229,4.0,8.0,95,0.00,,,0.34,Wunderground v.1.15,2015-01-26 15:04:00,
2015-01-26 10:09:00,37.1,36.1,29.74,SW,225,4.0,8.0,96,0.00,,,0.34,Wunderground v.1.15,2015-01-26 15:09:00,
2015-01-26 10:14:00,37.1,35.8,29.74,WSW,252,4.0,8.0,95,0.00,,,0.35,Wunderground v.1.15,2015-01-26 15:14:00,
2015-01-26 10:19:00,37.0,35.7,29.74,SW,234,4.0,8.0,95,0.00,,,0.35,Wunderground v.1.15,2015-01-26 15:19:00,
2015-01-26 10:24:00,37.0,35.7,29.74,SW,235,4.0,8.0,95,0.00,,,0.35,Wunderground v.1.15,2015-01-26 15:24:00,
2015-01-26 10:30:00,36.9,35.6,29.75,WSW,252,3.0,3.0,95,0.04,,,0.36,Wunderground v.1.15,2015-01-26 15:30:00,
2015-01-26 10:35:00,36.9,35.6,29.75,WSW,240,3.0,8.0,95,0.04,,,0.36,Wunderground v.1.15,2015-01-26 15:35:00,
2015-01-26 10:40:00,36.9,35.6,29.75,WSW,255,3.0,3.0,95,0.06,,,0.37,Wunderground v.1.15,2015-01-26 15:40:00,
2015-01-26 10:45:00,36.9,35.6,29.75,West,263,2.0,8.0,95,0.06,,,0.37,Wunderground v.1.15,2015-01-26 15:45:00,
2015-01-26 10:50:00,36.8,35.5,29.75,SW,222,3.0,8.0,95,0.05,,,0.37,Wunderground v.1.15,2015-01-26 15:50:00,
2015-01-26 10:56:00,36.8,35.5,29.75,WSW,246,4.0,8.0,95,0.04,,,0.38,Wunderground v.1.15,2015-01-26 15:56:00,
2015-01-26 11:01:00,36.8,35.5,29.75,West,267,3.0,8.0,95,0.04,,,0.38,Wunderground v.1.15,2015-01-26 16:01:00,
2015-01-26 11:06:00,36.8,35.8,29.75,SW,235,3.0,8.0,96,0.04,,,0.38,Wunderground v.1.15,2015-01-26 16:06:00,
2015-01-26 11:11:00,36.8,35.8,29.75,SW,230,3.0,4.0,96,0.00,,,0.38,Wunderground v.1.15,2015-01-26 16:11:00,
2015-01-26 11:16:00,36.8,35.8,29.75,WSW,258,3.0,8.0,96,0.00,,,0.38,Wunderground v.1.15,2015-01-26 16:16:00,
2015-01-26 11:22:00,36.8,35.5,29.75,SW,227,3.0,8.0,95,0.00,,,0.38,Wunderground v.1.15,2015-01-26 16:22:00,
2015-01-26 11:27:00,36.7,35.4,29.76,SW,231,3.0,8.0,95,0.00,,,0.38,Wunderground v.1.15,2015-01-26 16:27:00,
2015-01-26 11:32:00,36.7,35.4,29.75,SW,233,4.0,8.0,95,0.00,,,0.39,Wunderground v.1.15,2015-01-26 16:32:00,
2015-01-26 11:37:00,36.7,35.7,29.75,WSW,254,3.0,8.0,96,0.00,,,0.39,Wunderground v.1.15,2015-01-26 16:37:00,
2015-01-26 11:42:00,36.6,35.6,29.75,West,277,2.0,8.0,96,0.00,,,0.39,Wunderground v.1.15,2015-01-26 16:42:00,
2015-01-26 11:48:00,36.7,35.7,29.75,SW,227,3.0,8.0,96,0.05,,,0.40,Wunderground v.1.15,2015-01-26 16:48:00,
2015-01-26 11:53:00,36.7,35.4,29.75,SW,226,4.0,8.0,95,0.05,,,0.40,Wunderground v.1.15,2015-01-26 16:53:00,
2015-01-26 11:58:00,36.7,35.4,29.75,West,266,5.0,8.0,95,0.04,,,0.40,Wunderground v.1.15,2015-01-26 16:58:00,
2015-01-26 12:03:00,36.8,35.5,29.75,West,268,4.0,8.0,95,0.00,,,0.40,Wunderground v.1.15,2015-01-26 17:03:00,